Regional Weather Roundup
Issued by NWS Newport/Morehead, NC

Current Version | Previous Version | Graphics & Text | Print | Product List | Glossary On
Versions: 1 2 3 4 5 6 7 8 9 10 11 12 13 14 15 16 17 18 19 20 21 22 23 24 25 26 27 28 29 30 31 32 33 34 35 36 37 38 39 40 41 42 43 44 45 46 47 48 49 50
000 ASUS42 KMHX 271225 RWRMHX WEATHER ROUNDUP FOR EASTERN NORTH CAROLINA NATIONAL WEATHER SERVICE NEWPORT/MOREHEAD CITY NC 700 AM EST MON FEB 27 2017 NOTE: "FAIR" INDICATES FEW OR NO CLOUDS BELOW 12,000 FEET WITH NO SIGNIFICANT WEATHER AND/OR OBSTRUCTIONS TO VISIBILITY NCZ015>017-031-032-045>047-102-103-271300- NORTH COAST CITY SKY/WX TMP DP RH WIND PRES REMARKS EDENTON CLEAR 39 36 89 CALM 30.44R ELIZABETH CITY PTCLDY 45 38 76 SE6 30.43R KITTY HAWK NOT AVBL MANTEO CLEAR 39 38 98 CALM 30.44R $$ NCZ045>047-081-094-103-104-271300- CENTRAL COAST CITY SKY/WX TMP DP RH WIND PRES REMARKS FRISCO CLEAR 45 36 70 NE5 30.43R $$ NCZ095-097-098-100-101-271300- SOUTHERN COAST CITY SKY/WX TMP DP RH WIND PRES REMARKS BEAUFORT CLEAR 39 35 86 NE5 30.42R CEDAR ISLAND NOT AVBL JACKSONVILLE CLEAR 35 34 96 CALM 30.40S PINEY ISLAND SUNNY N/A N/A N/A E7 30.42R WILMINGTON PTCLDY 34 32 92 CALM 30.38F $$ NCZ011>013-027>030-043-044-078>080-089-090>093-098-271300- COASTAL PLAIN CITY SKY/WX TMP DP RH WIND PRES REMARKS AHOSKIE N/A 30 28 91 CALM 30.42R CLINTON PTCLDY 40 30 67 CALM 30.40R ELIZABETHTOWN CLOUDY 37 34 90 CALM 30.39R GOLDSBORO CLEAR 35 29 82 SE3 30.36F GREENVILLE CLEAR 34 32 93 CALM 30.39F HAVELOCK PTCLDY 35 31 85 CALM 30.43R KENANSVILLE CLEAR 37 28 70 SE3 30.38S KINSTON CLEAR 32 28 86 CALM 30.39F NEW BERN CLEAR 31 31 100 CALM 30.42S RICHLANDS CLEAR 35 31 85 E6 30.39F ROCKY MOUNT PTCLDY 34 30 85 CALM 30.39S WASHINGTON PTCLDY 32 29 90 E3 30.41F WHITEVILLE PTCLDY 38 36 92 CALM 30.37R $$ AMZ130-135-150-152-154-156-158-170-250-252-270-ANZ085-086-088-633-658-670-271300- MARINE OBSERVATIONS STATION/POSITION TIME TEMP WIND PRES WAVE SWELL AIR SEA DIR/SP/G HT/PER HT/PER (UTC) (F) (DEG/KT/KT) (MB) (FT/S) (FT/S) CHESAPEAKE LIGHT NOT AVBL 64 E VA BEACH 1150 48 47 100/ 4/ 6 1030.6 3/ 8 3/ 8 DUCK 1200 48 49 120/ 8/ 9 1030.0 2 E DUCK 1200 49 N/A 2/ 9 OREGON INLET 1200 49 56 90/ 4/ 5 1030.5 13E OREGON INLT NOT AVBL HATTERAS CG 1200 52 60 60/ 4/ 5 1030.1 DIAMOND BUOY 1150 58 71 50/ 4/ 8 1030.2 3/ 8 3/ 8 CAPE LOOKOUT 1200 56 20/ 7/ 7 1029.7 BEAUFORT LAB 1200 49 60 40/ 5/ 7 1029.1 30 SE NEW RVR IN 1208 59 80/ 8/ 12 1029.5 30 SE NEW RVR IN 1213 65 N/A 3/ 8 27 SE WRIGHTSVLE 1208 59 62 80/ 10/ 16 1027.8 5 SE WRIGHTSVLE 1208 58 58 90/ 10/ 16 1028.5 225 S CAPE HAT 1150 65 70 60/ 12/ 14 1027.8 4/ 8 3/ 8 41 SE CHARLESTON 1150 63 69 90/ 14/ 17 1026.7 3/ 9 2/ 9 $$

USA.gov is the U.S. government's official web portal to all federal, state and local government web resources and services.